Location: Vinland
(47.7731°N, 122.6974°W)
Time: 19:02:57
(UTC+00:00)

Vanguard 1 Rocket - Pass Details

Date: 21 March 2023
Orbit: 654 x 4221 km, 34.3° (Epoch: 29 May)

Event Time Altitude Azimuth Distance (km) Brightness Sun altitude
Exits shadow 11:17:13 33° 176° (S) 2,217 9.0 -28.3°
Drops below altitude 10° 11:22:11 10° 131° (SE) 2,918 10.1 -27.6°
Sets 11:24:30 0° 122° (ESE) 3,604 10.8 -27.3°
